CW8398 Weather Reports


time (UTC)temp
F
wind
direction
speed
knots
gust
knots
rain 1hr
in
rain 24hr
in
rain mn
in
humidity
%
barometer
mb
20260902164302 65 181 2.6 8.7 0.00 0.00 0.00 77 1004.6
20260902163802 66 174 2.6 7.8 0.00 0.00 0.00 76 1004.6
20260902163302 66 160 2.6 7.8 0.00 0.00 0.00 75 1004.6
20260902162802 66 164 2.6 7.8 0.00 0.00 0.00 75 1004.6
20260902162306 66 168 4.3 8.7 0.00 0.00 0.00 74 1004.6
20260902161802 67 175 1.7 8.7 0.00 0.00 0.00 74 1004.6
20260902161302 67 163 2.6 8.7 0.00 0.00 0.00 73 1004.6
20260902160302 68 154 4.3 8.7 0.00 0.00 0.00 72 1004.6
20260902155802 68 160 4.3 10.4 0.00 0.00 0.00 70 1004.6
20260902155306 68 167 4.3 8.7 0.00 0.00 0.00 69 1004.6
20260902154802 68 169 4.3 8.7 0.00 0.00 0.00 68 1004.6
20260902154302 68 170 3.5 8.7 0.00 0.00 0.00 69 1004.6
20260902153802 68 174 5.2 12.2 0.00 0.00 0.00 69 1004.6
20260902153303 69 169 4.3 8.7 0.00 0.00 0.00 70 1004.6
20260902152307 69 178 2.6 8.7 0.00 0.00 0.00 71 1004.6
20260902151802 69 168 4.3 11.3 0.00 0.00 0.00 70 1004.6
20260902150802 69 185 2.6 12.2 0.00 0.00 0.00 72 1004.6
20260902150302 69 151 2.6 7.0 0.00 0.00 0.00 72 1004.6
20260902145305 69 170 5.2 10.4 0.00 0.00 0.00 71 1004.6
20260902144803 69 171 5.2 11.3 0.00 0.00 0.00 70 1004.6
20260902144302 69 173 3.5 11.3 0.00 0.00 0.00 70 1004.6
20260902143802 69 172 2.6 11.3 0.00 0.00 0.00 70 1004.6
20260902143303 69 162 3.5 8.7 0.00 0.00 0.00 68 1004.6
20260902142305 69 180 3.5 8.7 0.00 0.00 0.00 67 1004.7
20260902141803 70 159 2.6 7.0 0.00 0.00 0.00 69 1004.7
20260902141302 70 165 4.3 10.4 0.00 0.00 0.00 68 1004.7
20260902140802 70 189 2.6 12.2 0.00 0.00 0.00 67 1004.8
20260902140302 70 157 2.6 12.2 0.00 0.00 0.00 67 1004.8
20260902135802 70 191 3.5 8.7 0.00 0.00 0.00 67 1004.8
20260902132306 69 172 4.3 10.4 0.00 0.02 0.00 67 1005.1
20260902131803 69 167 2.6 8.7 0.00 0.03 0.00 67 1005.1
20260902131303 70 182 3.5 8.7 0.00 0.03 0.00 65 1005.1
20260902130803 71 188 4.3 10.4 0.00 0.03 0.00 65 1005.1
20260902130302 70 180 4.3 8.7 0.00 0.04 0.00 65 1005.1
20260902125305 70 190 4.3 8.7 0.00 0.04 0.00 65 1005.0
20260902124803 70 184 4.3 10.4 0.00 0.04 0.00 65 1005.2
20260902124303 70 160 2.6 7.8 0.00 0.04 0.00 66 1005.2
20260902123802 70 182 4.3 8.7 0.00 0.04 0.00 65 1005.2
20260902123303 69 197 4.3 10.4 0.00 0.04 0.00 66 1005.2
20260902122802 69 182 2.6 7.8 0.00 0.04 0.00 68 1005.6
20260902121802 69 182 2.6 8.7 0.00 0.04 0.00 68 1005.6
20260902121302 69 190 2.6 6.1 0.00 0.04 0.00 68 1005.6
20260902120802 69 181 2.6 7.8 0.00 0.04 0.00 68 1005.7
20260902120302 69 178 2.6 8.7 0.00 0.04 0.00 68 1005.7
20260902115802 69 217 2.6 8.7 0.00 0.04 0.00 67 1005.7
20260902114803 69 193 0.9 10.4 0.00 0.04 0.00 67 1005.7
20260902114303 70 207 0.0 5.2 0.00 0.04 0.00 66 1005.7
20260902113802 70 232 1.7 6.1 0.00 0.04 0.00 65 1005.7
20260902113303 70 169 3.5 7.8 0.00 0.04 0.00 65 1005.9
20260902112802 70 170 1.7 8.7 0.00 0.04 0.00 65 1005.9
20260902111803 70 168 3.5 7.8 0.00 0.04 0.00 64 1005.9
20260902110802 69 183 2.6 8.7 0.00 0.04 0.00 68 1005.9
20260902110302 69 209 1.7 6.1 0.00 0.04 0.00 68 1006.0
20260902105803 69 250 1.7 7.0 0.00 0.04 0.00 68 1006.0
20260902105306 69 213 2.6 7.8 0.00 0.04 0.00 68 1006.1
20260902104802 68 223 2.6 7.8 0.00 0.04 0.00 69 1006.1
20260902103802 69 199 3.5 7.8 0.00 0.04 0.00 69 1006.1
20260902103302 68 167 1.7 7.0 0.00 0.04 0.00 71 1006.1
20260902102803 68 195 1.7 6.1 0.00 0.04 0.00 72 1006.1
20260902102307 68 210 2.6 7.8 0.00 0.04 0.00 72 1006.1
20260902101802 67 181 2.6 6.1 0.00 0.04 0.00 74 1006.1
20260902101302 67 211 1.7 6.1 0.00 0.04 0.00 76 1006.1
20260902100302 65 178 2.6 7.8 0.00 0.04 0.00 77 1006.1
20260902094802 64 238 2.6 7.0 0.00 0.04 0.00 79 1006.1
20260902093802 63 176 1.7 5.2 0.00 0.04 0.00 83 1006.1
20260902093302 63 205 2.6 4.3 0.00 0.04 0.00 83 1006.1
20260902092802 63 172 1.7 6.1 0.00 0.04 0.00 83 1006.1
20260902092305 62 233 2.6 7.8 0.00 0.04 0.00 83 1006.2
20260902091802 62 198 1.7 4.3 0.00 0.04 0.00 84 1006.2
20260902090802 62 206 2.6 7.0 0.00 0.04 0.00 85 1006.2
20260902090302 61 166 0.9 2.6 0.00 0.04 0.00 86 1006.2
20260902085803 61 192 2.6 6.1 0.00 0.04 0.00 86 1006.2
20260902085306 61 217 1.7 4.3 0.00 0.04 0.00 88 1006.2
20260902084803 61 211 2.6 6.1 0.00 0.04 0.00 88 1006.2
20260902084303 60 181 2.6 8.7 0.00 0.04 0.00 88 1006.2
20260902083803 60 189 2.6 8.7 0.00 0.04 0.00 89 1006.2
20260902083303 60 178 1.7 5.2 0.00 0.04 0.00 91 1006.2
20260902082802 60 157 1.7 4.3 0.00 0.04 0.00 92 1006.2
20260902082308 59 243 1.7 5.2 0.00 0.04 0.00 93 1006.2
20260902081803 59 325 0.9 1.7 0.00 0.04 0.00 94 1006.2
20260902081303 59 218 0.9 2.6 0.00 0.04 0.00 94 1006.2
20260902080802 59 208 1.7 6.1 0.00 0.04 0.00 95 1006.2
20260902080302 58 251 2.6 5.2 0.00 0.04 0.00 95 1006.1
20260902075803 59 318 1.7 5.2 0.00 0.04 0.00 96 1006.1
20260902075306 59 191 0.9 2.6 0.00 0.04 0.00 96 1006.1
20260902074802 58 165 0.9 1.7 0.00 0.04 0.00 96 1006.1
20260902073802 58 241 1.7 4.3 0.00 0.04 0.00 96 1006.2
20260902073303 58 223 0.9 5.2 0.00 0.04 0.00 96 1006.2
20260902072804 58 195 1.7 5.2 0.00 0.04 0.00 96 1006.2
20260902071803 58 246 2.6 6.1 0.00 0.04 0.00 96 1006.2
20260902071303 57 196 0.9 5.2 0.00 0.04 0.00 96 1005.9
20260902070803 57 211 1.7 6.1 0.00 0.04 0.00 96 1005.9
20260902070303 57 185 1.7 5.2 0.00 0.04 0.00 96 1005.9
20260902065802 57 171 1.7 5.2 0.00 0.04 0.00 96 1005.9
20260902065306 57 201 0.9 4.3 0.00 0.04 0.00 96 1005.9
20260902064803 57 186 0.9 2.6 0.00 0.04 0.00 96 1005.9
20260902063803 56 280 0.9 2.6 0.00 0.04 0.00 96 1005.9
20260902063303 56 219 1.7 2.6 0.00 0.04 0.00 96 1005.9
20260902062802 56 232 2.6 7.0 0.00 0.04 0.00 96 1005.9
20260902062305 56 255 0.9 2.6 0.00 0.04 0.00 96 1005.9
20260902061802 56 236 0.9 2.6 0.00 0.04 0.00 96 1005.9
20260902061302 56 243 0.9 4.3 0.00 0.04 0.00 96 1005.9
20260902060803 56 152 0.0 1.7 0.00 0.04 0.00 96 1005.9
20260902060303 56 151 0.0 2.6 0.00 0.04 0.00 96 1005.9
20260902055804 56 219 0.0 2.6 0.00 0.04 0.00 96 1005.9
20260902054802 56 177 0.9 2.6 0.00 0.04 0.00 96 1005.9
20260902054302 55 175 0.0 1.7 0.00 0.04 0.00 96 1005.9
20260902053802 55 214 0.0 2.6 0.00 0.04 0.00 96 1005.9
20260902052306 55 194 0.0 2.6 0.00 0.04 0.00 96 1005.9
20260902051803 55 221 0.0 2.6 0.00 0.04 0.00 96 1005.9
20260902051302 55 198 0.9 2.6 0.00 0.04 0.00 96 1005.9
20260902050303 54 236 0.0 1.7 0.00 0.04 0.00 96 1005.9
20260902045803 54 236 0.0 0.0 0.00 0.04 0.00 96 1005.9
20260902044802 54 236 0.0 0.0 0.00 0.04 0.00 95 1005.9
20260902044303 55 236 0.0 0.0 0.00 0.04 0.00 95 1005.9
20260902043803 55 236 0.0 0.0 0.00 0.04 0.00 96 1005.9
20260902041802 55 236 0.0 2.6 0.00 0.04 0.00 95 1005.9
20260902041302 55 222 0.0 2.6 0.00 0.04 0.00 96 1005.9
20260902040803 55 225 0.0 0.9 0.00 0.04 0.00 96 1005.9
20260902040303 55 225 0.0 1.7 0.00 0.04 0.00 96 1005.9
20260902035305 55 225 0.0 1.7 0.00 0.04 0.00 96 1005.9
20260902034802 55 221 0.9 1.7 0.00 0.04 0.00 96 1005.9
20260902034302 55 272 0.0 1.7 0.00 0.04 0.00 96 1005.9
20260902033803 55 205 0.0 0.9 0.00 0.04 0.00 96 1005.9
20260902033302 55 205 0.0 1.7 0.00 0.04 0.00 96 1005.9
20260902032803 55 205 0.0 1.7 0.00 0.04 0.00 96 1005.9
20260902032305 55 202 0.0 0.9 0.00 0.04 0.00 95 1006.0
20260902031303 55 221 0.0 0.9 0.00 0.04 0.00 95 1006.0
20260902030802 55 221 0.0 0.9 0.00 0.04 0.00 95 1006.0
20260902030303 55 221 0.0 0.9 0.00 0.04 0.00 95 1006.0
20260902025803 55 221 0.0 1.7 0.00 0.04 0.00 95 1006.0
20260902025306 55 252 0.0 0.9 0.00 0.04 0.00 95 1006.2
20260902024803 55 252 0.0 0.9 0.00 0.04 0.00 95 1006.2
20260902024302 55 252 0.9 1.7 0.00 0.04 0.00 95 1006.2
20260902023803 55 240 0.0 0.9 0.00 0.04 0.00 95 1006.2
20260902023302 55 236 0.9 2.6 0.00 0.04 0.00 95 1006.2
20260902022803 54 232 0.0 0.9 0.00 0.04 0.00 95 1006.2
20260902022306 54 232 0.0 0.9 0.00 0.04 0.00 95 1006.2
20260902021804 54 232 0.0 1.7 0.00 0.04 0.00 95 1006.2
20260902021302 54 158 0.0 1.7 0.00 0.04 0.00 95 1006.2
20260902020802 54 202 0.9 1.7 0.00 0.04 0.00 95 1006.2
20260902020302 54 153 0.0 0.9 0.00 0.04 0.00 95 1006.2
20260902015802 54 153 0.0 0.9 0.00 0.04 0.00 95 1006.2
20260902014302 54 153 0.0 0.9 0.00 0.04 0.00 95 1006.2
20260902013802 54 153 0.0 0.9 0.00 0.04 0.00 95 1006.2
20260902012803 54 153 0.9 1.7 0.00 0.04 0.00 95 1006.2
20260902012308 54 153 0.9 1.7 0.00 0.04 0.00 95 1006.2
20260902011802 54 153 0.9 1.7 0.00 0.04 0.00 95 1006.2
20260902011303 54 153 0.9 1.7 0.00 0.04 0.00 95 1006.2
20260902010803 54 153 0.9 1.7 0.00 0.04 0.00 94 1006.2
20260902005803 54 153 0.9 1.7 0.00 0.04 0.00 94 1006.2
20260902005306 54 153 0.9 1.7 0.00 0.04 0.00 94 1006.2
20260902004803 54 153 0.9 1.7 0.00 0.04 0.00 94 1006.2
20260902004302 54 153 0.9 1.7 0.00 0.04 0.00 94 1006.2
20260902003802 54 153 0.9 0.9 0.00 0.04 0.00 94 1006.2
20260902003303 54 153 0.9 1.7 0.00 0.04 0.00 94 1006.2
20260902002803 54 153 0.9 1.7 0.00 0.04 0.00 94 1006.2
20260902002306 54 153 0.9 1.7 0.00 0.04 0.00 94 1006.2
20260902001803 54 153 0.9 1.7 0.00 0.04 0.00 94 1006.2
20260902001303 54 153 0.9 0.9 0.00 0.04 0.00 94 1006.2
20260902000802 54 153 0.9 1.7 0.00 0.04 0.00 94 1006.2
20260902000304 54 153 0.9 0.9 0.00 0.04 0.00 93 1006.2
20260901235802 54 153 0.9 1.7 0.00 0.04 0.00 93 1006.2
20260901235307 54 153 0.9 0.9 0.00 0.04 0.00 93 1006.2
20260901234805 54 153 0.9 1.7 0.00 0.04 0.00 93 1006.2
20260901233802 54 153 0.9 1.7 0.00 0.04 0.00 93 1006.2
20260901233303 54 5 0.9 1.7 0.00 0.04 0.00 93 1006.2
20260901232803 54 5 0.9 1.7 0.00 0.04 0.00 93 1006.2
20260901232306 55 5 0.9 0.9 0.00 0.04 0.00 93 1006.2
20260901231303 55 5 0.0 0.0 0.00 0.04 0.00 93 1006.2
20260901230802 55 5 0.0 0.0 0.00 0.04 0.00 93 1006.2
20260901225802 55 5 0.0 0.0 0.00 0.04 0.00 93 1006.2
20260901224803 55 5 0.0 0.0 0.00 0.04 0.00 92 1006.2
20260901224303 55 5 0.0 0.0 0.00 0.04 0.00 92 1006.2
20260901223302 55 5 0.0 0.0 0.00 0.04 0.00 92 1006.2
20260901222803 56 5 0.0 0.0 0.00 0.04 0.00 92 1006.2
20260901222306 56 5 0.0 0.0 0.00 0.04 0.00 92 1006.2
20260901221803 56 5 0.0 0.0 0.00 0.04 0.00 92 1006.2
20260901221303 56 5 0.0 0.0 0.00 0.04 0.00 92 1006.2
20260901220815 56 5 0.0 0.0 0.00 0.04 0.00 92 1006.2
20260901215803 56 5 0.0 0.0 0.00 0.04 0.04 92 1006.2
20260901215305 56 5 0.0 0.0 0.00 0.04 0.04 92 1006.2
20260901214803 56 5 0.0 0.0 0.00 0.04 0.04 92 1006.2
20260901214303 56 5 0.0 0.0 0.00 0.04 0.04 92 1006.2
20260901213803 56 5 0.0 0.0 0.00 0.04 0.04 91 1006.2
20260901213302 57 5 0.0 0.0 0.00 0.04 0.04 91 1006.2
20260901212803 57 5 0.0 0.0 0.00 0.04 0.04 91 1006.2
20260901212306 57 5 0.0 0.0 0.00 0.04 0.04 91 1006.2
20260901211803 57 5 0.0 0.0 0.00 0.04 0.04 91 1006.2
20260901211303 57 5 0.0 0.0 0.00 0.04 0.04 91 1006.2
20260901210803 57 5 0.0 0.0 0.00 0.04 0.04 91 1006.2
20260901210303 57 5 0.0 0.0 0.00 0.04 0.04 91 1006.2
20260901205803 57 5 0.0 0.0 0.00 0.04 0.04 91 1006.2
20260901205306 57 5 0.0 0.0 0.00 0.04 0.04 91 1006.2
20260901204303 57 5 0.0 0.0 0.00 0.04 0.04 91 1006.2
20260901203303 58 5 0.0 0.0 0.00 0.04 0.04 91 1006.2
20260901202803 58 5 0.0 0.0 0.00 0.04 0.04 91 1006.2
20260901202306 58 5 0.0 0.0 0.00 0.04 0.04 91 1006.2
20260901201303 58 5 0.0 0.0 0.00 0.04 0.04 91 1006.3
20260901200803 58 5 0.0 0.0 0.00 0.04 0.04 91 1006.1
20260901200303 58 5 0.0 0.0 0.00 0.04 0.04 90 1006.1
20260901195305 58 5 0.0 0.0 0.00 0.04 0.04 90 1006.1
20260901194803 58 5 0.0 0.0 0.00 0.04 0.04 90 1006.1
20260901194302 59 5 0.0 0.0 0.00 0.04 0.04 90 1006.1
20260901193803 59 5 0.0 0.0 0.00 0.04 0.04 90 1006.1
20260901193303 59 5 0.0 0.0 0.00 0.04 0.04 90 1006.1
20260901192804 59 5 0.0 0.0 0.00 0.04 0.04 90 1006.1
20260901192306 59 5 0.0 0.0 0.00 0.04 0.04 90 1006.1
20260901191803 59 5 0.0 0.0 0.00 0.04 0.04 89 1006.1
20260901191303 60 5 0.0 0.0 0.00 0.04 0.04 89 1006.1
20260901190803 60 5 0.0 0.0 0.00 0.04 0.04 90 1006.1
20260901190303 60 5 0.0 0.0 0.00 0.04 0.04 90 1006.1
20260901185803 60 5 0.0 0.0 0.00 0.04 0.04 89 1006.1
20260901184803 61 5 0.0 0.0 0.00 0.04 0.04 89 1006.1
20260901184303 61 5 0.0 0.0 0.00 0.04 0.04 89 1006.1
20260901183303 61 5 0.0 0.0 0.00 0.04 0.04 89 1006.0
20260901182803 61 5 0.0 0.0 0.00 0.04 0.04 89 1006.0
20260901182305 61 5 0.0 0.9 0.00 0.04 0.04 90 1006.0
20260901181803 62 5 0.0 0.0 0.00 0.04 0.04 90 1006.0
20260901181302 62 5 0.0 0.9 0.00 0.04 0.04 90 1006.0
20260901180803 62 5 0.0 1.7 0.00 0.04 0.04 90 1006.0
20260901180303 62 5 0.9 1.7 0.00 0.04 0.04 90 1006.0
20260901175803 62 5 0.9 1.7 0.00 0.04 0.04 89 1006.0
20260901175305 62 5 0.0 0.0 0.00 0.04 0.04 89 1006.0
20260901174803 62 5 0.0 1.7 0.00 0.04 0.04 89 1005.9
20260901173803 63 46 0.9 1.7 0.00 0.04 0.04 89 1005.9
20260901173303 63 16 0.9 2.6 0.00 0.04 0.04 89 1005.9
20260901172803 63 15 0.0 0.0 0.00 0.04 0.04 88 1005.9
20260901172305 63 15 0.0 1.7 0.00 0.04 0.04 88 1005.9
20260901171803 63 38 0.9 2.6 0.00 0.04 0.04 88 1005.7
20260901171303 63 22 0.9 2.6 0.00 0.04 0.04 88 1005.7
20260901170802 64 32 0.9 1.7 0.00 0.04 0.04 88 1005.7
20260901170303 64 34 0.0 1.7 0.00 0.04 0.04 88 1005.7
20260901165306 64 34 0.9 1.7 0.00 0.04 0.04 87 1005.7
20260901164803 64 14 0.0 1.7 0.00 0.04 0.04 87 1005.5